Find Local Weather

World > North America > United States > Virginia

Richmond, Virginia Regional Weather

Lat: 37.48N, Lon: 77.47W
Wx Zone: VAZ096
Feedback
Expires:201810220900;;556681
ASUS41 KAKQ 220815
RWRAKQ

REGIONAL WEATHER ROUNDUP
NATIONAL WEATHER SERVICE WAKEFIELD VA
400 AM EDT MON OCT 22 2018

Note: "fair" indicates few or no clouds below 12,000 feet with no
significant weather and/or obstructions to visibility. * = Denotes
station may not report precipitation (e.g., rain,snow,etc.),
thunder or fog.


VAZ088>098-220900-
SOUTHEAST VIRGINIA
  
CITY           SKY/WX    TMP DP  RH WIND       PRES   REMARKS
NORFOLK        FAIR      47  38  71 W6        30.28R                  
VIRGINIA BEACH FAIR      39  36  89 SW7       30.27R                  
NORFOLK NAVAL  FAIR      46  37  71 NW12      30.30R                  
WEST POINT*    FAIR      37  32  83 CALM      30.31S                  
SALUDA*        FAIR      44  35  71 N10       30.29R                  
NEWPORT NEWS   FAIR      36  33  89 N3        30.30R                  
LANGLEY AFB    FAIR      40  35  84 NW6       30.29R                  
FORT EUSTIS    FAIR      42  33  69 CALM      30.28R                  
WILLIAMSBURG*  FAIR      37  34  87 CALM      30.31S                  
HR EXEC AP*    FAIR      30  30 100 W3        30.30R                  
FRANKLIN*      FAIR      33  32  98 CALM      30.31S                  
US460-WAKEFLD  FAIR      33  31  92 CALM      30.31R                  
$$


SKY/WX - Weather  TMP - Temperature  DP - Dew Point  RH - Relative Humidity
WIND - Wind Direction/Speed PRES - Barometric Pressure